GW7367 Weather Reports


time (UTC)temp
F
wind
direction
speed
knots
gust
knots
rain 1hr
in
rain 24hr
in
rain mn
in
humidity
%
barometer
mb
20260510074908 56 317 0.0 0.0 0.00 0.00 0.00 77 1018.5
20260510073403 56 317 0.9 1.7 0.00 0.00 0.00 77 1018.5
20260510071858 56 317 0.0 2.6 0.00 0.00 0.00 78 1018.5
20260510070355 57 317 0.9 3.5 0.00 0.00 0.00 78 1018.5
20260510064855 58 310 3.5 7.0 0.00 0.00 0.00 74 1018.5
20260510063351 58 303 6.1 7.8 0.00 0.00 0.00 71 1018.5
20260510061850 58 305 5.2 7.8 0.00 0.00 0.00 75 1018.5
20260510060347 58 305 5.2 7.8 0.00 0.00 0.00 74 1018.5
20260510054842 59 299 6.1 7.8 0.00 0.00 0.00 72 1018.5
20260510053340 58 300 6.1 8.7 0.00 0.00 0.00 72 1018.5
20260510051835 59 297 4.3 9.6 0.00 0.00 0.00 73 1018.5
20260510050331 59 301 6.1 9.6 0.00 0.00 0.00 73 1018.5
20260510044828 59 306 3.5 7.8 0.00 0.00 0.00 73 1018.2
20260510043323 59 299 6.1 8.7 0.00 0.00 0.00 72 1018.2
20260510041819 59 303 6.1 8.7 0.00 0.00 0.00 72 1018.2
20260510040316 60 304 6.1 7.8 0.00 0.00 0.00 69 1018.2
20260510034815 60 298 4.3 8.7 0.00 0.00 0.00 69 1018.2
20260510033312 60 301 4.3 7.0 0.00 0.00 0.00 70 1018.5
20260510031807 61 308 4.3 7.8 0.00 0.00 0.00 68 1018.5
20260510030305 61 308 4.3 7.8 0.00 0.00 0.00 68 1018.5
20260510024802 62 318 7.0 8.7 0.00 0.00 0.00 63 1018.5
20260510023258 62 316 7.0 8.7 0.00 0.00 0.00 64 1018.5
20260510021754 62 322 5.2 7.8 0.00 0.00 0.00 65 1018.9
20260510020253 62 326 7.0 8.7 0.00 0.00 0.00 66 1018.9
20260510014753 62 323 7.8 9.6 0.00 0.00 0.00 65 1019.2
20260510013248 62 322 8.7 11.3 0.00 0.00 0.00 64 1019.2
20260510011749 63 322 8.7 12.2 0.00 0.00 0.00 64 1019.2
20260510010244 62 326 8.7 10.4 0.00 0.00 0.00 64 1019.5
20260510004741 63 320 8.7 11.3 0.00 0.00 0.00 62 1019.5
20260510003238 64 319 7.8 10.4 0.00 0.00 0.00 60 1019.5
20260510001736 64 321 7.0 10.4 0.00 0.00 0.00 59 1019.9
20260510000234 65 319 6.1 8.7 0.00 0.00 0.00 57 1019.9
20260509234729 65 326 7.0 8.7 0.00 0.00 0.00 56 1019.9
20260509233228 65 315 6.1 10.4 0.00 0.00 0.00 57 1020.2
20260509231723 65 315 4.3 7.8 0.00 0.00 0.00 56 1020.6
20260509230220 64 314 5.2 8.7 0.00 0.00 0.00 62 1020.9
20260509224719 63 310 6.1 8.7 0.00 0.00 0.00 63 1020.9
20260509223216 63 307 7.8 11.3 0.00 0.00 0.00 61 1021.2
20260509221716 63 310 6.1 8.7 0.00 0.00 0.00 64 1020.9
20260509220211 63 305 7.0 10.4 0.00 0.00 0.00 60 1021.2
20260509214707 62 308 6.1 8.7 0.00 0.00 0.00 62 1021.2
20260509213202 62 307 7.0 9.6 0.00 0.00 0.00 62 1021.2
20260509211658 62 308 7.0 9.6 0.00 0.00 0.00 64 1021.6
20260509210155 62 318 5.2 8.7 0.00 0.00 0.00 66 1021.6
20260509204652 61 333 4.3 7.0 0.00 0.00 0.00 68 1021.6
20260509203148 60 351 3.5 5.2 0.00 0.00 0.00 71 1021.9
20260509201645 60 330 3.5 6.1 0.00 0.00 0.00 72 1022.3
20260509200145 59 327 2.6 5.2 0.00 0.00 0.00 75 1022.3
20260509194642 59 327 3.5 5.2 0.00 0.00 0.00 77 1022.6
20260509193137 57 330 5.2 7.8 0.00 0.00 0.00 79 1022.9
20260509191635 57 332 5.2 7.0 0.00 0.00 0.00 79 1022.9
20260509190132 57 316 6.1 7.8 0.00 0.00 0.00 79 1022.9
20260509184629 57 315 6.1 7.8 0.00 0.00 0.00 79 1023.3
20260509183129 57 319 5.2 7.0 0.00 0.00 0.00 80 1023.3
20260509181625 56 337 4.3 6.1 0.00 0.00 0.00 83 1023.3
20260509180121 55 337 5.2 7.0 0.00 0.00 0.00 84 1023.3
20260509174622 55 337 6.1 8.7 0.00 0.00 0.00 84 1023.6
20260509173120 55 318 6.1 8.7 0.00 0.00 0.00 84 1023.6
20260509171620 54 350 5.2 6.1 0.00 0.00 0.00 85 1023.6
20260509170115 54 346 4.3 6.1 0.00 0.00 0.00 85 1023.9
20260509164611 54 324 5.2 6.1 0.00 0.00 0.00 85 1023.9
20260509163106 53 327 4.3 6.1 0.00 0.00 0.00 85 1023.9
20260509161602 53 331 4.3 7.0 0.00 0.00 0.00 86 1024.3
20260509160059 53 319 4.3 6.1 0.00 0.00 0.00 86 1024.3
20260509154554 53 314 4.3 6.1 0.00 0.00 0.00 86 1024.3
20260509153051 53 312 2.6 4.3 0.00 0.00 0.00 86 1024.3
20260509151546 53 312 3.5 4.3 0.00 0.00 0.00 86 1024.6
20260509150046 53 313 3.5 5.2 0.00 0.00 0.00 86 1025.0
20260509144546 52 315 2.6 4.3 0.00 0.00 0.00 87 1025.0
20260509143043 52 315 2.6 3.5 0.00 0.00 0.00 87 1025.0
20260509141542 52 315 1.7 3.5 0.00 0.00 0.00 87 1025.0
20260509140040 52 315 1.7 2.6 0.00 0.00 0.00 89 1025.0
20260509134537 51 315 0.9 1.7 0.00 0.00 0.00 90 1025.0
20260509133035 51 315 1.7 2.6 0.00 0.00 0.00 91 1025.0
20260509131533 51 315 1.7 1.7 0.00 0.00 0.00 91 1025.0
20260509130029 51 315 1.7 3.5 0.00 0.00 0.00 92 1025.0
20260509124524 51 315 2.6 3.5 0.00 0.00 0.00 92 1025.0
20260509123021 51 315 1.7 4.3 0.00 0.00 0.00 89 1025.0
20260509121517 51 315 2.6 5.2 0.00 0.00 0.00 89 1025.0
20260509120017 51 302 3.5 6.1 0.00 0.00 0.00 90 1025.0
20260509114515 51 295 3.5 5.2 0.00 0.00 0.00 90 1025.0
20260509113015 52 228 0.0 3.5 0.00 0.00 0.00 87 1025.0
20260509111511 53 225 0.0 2.6 0.00 0.00 0.00 85 1025.3
20260509110007 53 225 2.6 3.5 0.00 0.00 0.00 83 1025.3
20260509104505 53 194 0.9 3.5 0.00 0.00 0.00 82 1025.3
20260509103004 54 144 0.9 3.5 0.00 0.00 0.00 82 1025.3
20260509101459 53 180 1.7 5.2 0.00 0.00 0.00 82 1025.3
20260509095956 53 182 1.7 5.2 0.00 0.00 0.00 82 1025.6
20260509094452 54 201 2.6 6.1 0.00 0.00 0.00 81 1025.6
20260509092951 54 201 3.5 8.7 0.00 0.00 0.00 80 1025.6
20260509091449 54 202 3.5 7.0 0.00 0.00 0.00 80 1025.6
20260509085947 55 207 3.5 7.8 0.00 0.00 0.00 79 1025.6
20260509084443 55 208 3.5 8.7 0.00 0.00 0.00 79 1025.6
20260509082940 55 205 3.5 7.8 0.00 0.00 0.00 78 1025.6
20260509081438 55 208 2.6 5.2 0.00 0.00 0.00 78 1025.6
20260509075936 55 202 3.5 7.0 0.00 0.00 0.00 78 1025.6